Showing default

SBIRS GEO 4 (USA 273), 41937

Orbit data source: Space-Track

SBIRS GEO 4 (USA 273), 41937 is a payload satellite owned by USAF AFSPC (US) in GEO that was launched on Sat, 21 Jan 2017 UTC via an ATLAS V 401 launch vehicle from the Air Force Eastern Test Range (AFETR). Payload-class satellites include a variety of spacecraft equipped with specific instruments for various scientific and technological missions. These include communications satellites like Starlink; space stations such as the ISS; scientific satellites like the Hubble; Earth observation satellites from companies like Planet Labs, Umbra, and HawkEye 360; GPS; miniature CubeSats for education and research; and military/defense satellites.

Not visible in the next 10 days
Identifier
41937, 2017-004A
Orbit
GEO
Country
Flag of USUS
Related business
Manufacturer
LMSS
Mission
Operational Defense Early Warn
Bus & Motor
A2100, LEROS 1C?
Mass
~4,500 kg wet, ~2,500 kg dry
Launch date (UTC)
2017-01-21 (9 years ago)
Launch vehicle
ATLAS V 401
Launch site
Air Force Eastern Test Range (AFETR)
Object type
Payload
Rocket body
Debris
Shape & HBR
Box + 2 Pan, 12.5 m
Radar Cross Section
33.213 m², Large (>1 m²)

Expand to show TLE details & history
Last TLE update: 10 hours ago

TLE from 10 hours ago
0 SBIRS GEO 4 (USA 273)
1 41937U 17004A   25260.96144419  .00000104  00000-0  00000-0 0  9994
2 41937   1.7690  32.7998 0001817 149.0019 182.3195  1.00270927 31863
Epoch: 2025-09-17T23:04Z
TLE epoch observation values (Epoch: 2025-09-17T23:04:28.777Z)
Latitude
-0.85903°
Longitude
20.88153°
Altitude
35,794.131 km
Speed
3.074 km/s
True Right ascension
00h 16m 31s
True Declination
0° 51' 29"
Sunlit
Object was in partial shadow at epoch
Visualization orbit readout
Latitude
Unknown
Longitude
Unknown
Altitude
Unknown
Speed
Unknown
Apparent Right ascension
Unknown
Apparent Declination
Unknown
Sunlit
N/A
Visualization observer readout
Local Sidereal Time
01:25:49
Azimuth
Unknown
Elevation
Unknown
Doppler factor
Unknown
Orbital elements
Apogee altitude
35,795.566 km
Perigee altitude
35,780.243 km
Semi-major axis
42,166.041 km
Eccentricity
0.00018
Inclination
1.769°
RAAN
32.7998°
Arg. of periapsis
149.0019°
True anomaly
182.31866°
Mean anomaly
182.3195°
Eccentric anomaly
182.31908°
Mean motion
0.25067 °/min
Orbital period
1,436.16 mins
BSTAR
0
Loading maneuver chart data...
Computing Atmospheric mass density...
Loading historical data...
Loading historical data...
Loading historical data...
Loading historical data...
Loading historical data...
Loading historical data...
Loading historical data...
Other satellites on launch #4 in the year 2017 (2017-01-21 UTC)

Documentation

Showing up to 5 results
|